Location: Unspecified
(49.9820°N, 20.4363°E)
Time: 00:17:38
(UTC+02:00)

ISS - Pass Details

Date: 21 May 2018
Orbit: 402 x 407 km, 51.6° (Epoch: 24 May)

Event Time Altitude Azimuth Distance (km) Brightness Sun altitude
Rises 00:44:55 0° 271° (W) 2,319 0.0 -19.9°
Reaches altitude 10° 00:47:01 10° 275° (W) 1,459 -1.0 -19.8°
Maximum altitude 00:50:16 63° 358° (N) 456 -3.4 -19.8°
Drops below altitude 10° 00:53:31 10° 80° (E) 1,458 -0.9 -19.8°
Sets 00:55:36 0° 84° (E) 2,318 0.2 -19.7°
